Voltar ao catálogo

GEESAT 6-02

AtivoNavegaçãoLEO
NORAD 65714·PAYLOAD·🇨🇳 China

Lançado Sep 24, 2025 de Yellow Sea Launch Area

Loading…

Próximas Passagens (próximas 24 horas)

TLE

AtualizadoSource: Space-Track

Época: Sep 14, 2026, 00:54 UTC

1 65714U 25214C   26257.03796230  .00001196  00000-0  17076-3 0  9990
2 65714  49.9834 256.7425 0009932 198.1382 161.9203 14.83601167 52699

Acompanhe GEESAT 6-02 em tempo real com AllMySat

Download on the App Store